CZ-3B DEB, 40193

Orbit data source: Space-Track

CZ-3B DEB, 40193 is space debris in HEO originally from a launch on Mon, 19 Dec 2011 UTC launched from the Xichang Space Center, China (XSC). Debris objects in space refer to the collection of defunct objects orbiting the Earth. Examples of debris include non-operational satellites, rocket bodies, and fragments generated from explosions, collisions, or faulty payload assembly.

Loading next visibility...
Identifier
40193, 2011-077S
Orbit
HEO
Country
Flag of CNCN / PRC
Related business
Manufacturer
CALT
Mission
Spacecraft
Bus & Motor
Unknown
Mass
Unknown
Launch date (UTC)
2011-12-19 (14 years ago)
Launch vehicle
Unknown
Launch site
Xichang Space Center, China (XSC)
Object type
Payload
Rocket body
Debris
Shape & HBR
Unknown shape, 0.2 m
Radar Cross Section
Medium (>0.1 m² and <1 m²)

Expand to show TLE details & history
Last TLE update: 1 day ago

TLE from 1 day ago
0 CZ-3B DEB
1 40193U 11077S   26036.14108075 -.00000098  00000-0  72926-2 0  9992
2 40193  26.1883  65.1708 7414917 279.6166  10.9070  1.86805272 73695
Epoch: 2026-02-05T03:23Z
TLE epoch observation values (Epoch: 2026-02-05T03:23:09.376Z)
Latitude
-0.0003°
Longitude
-120.77016°
Altitude
4,775.595 km
Speed
7.56 km/s
True Right ascension
04h 21m 15s
True Declination
0° 00' 01"
Sunlit
Object was in daylight at epoch
Visualization orbit readout
Latitude
Unknown
Longitude
Unknown
Altitude
Unknown
Speed
Unknown
Apparent Right ascension
Unknown
Apparent Declination
Unknown
Sunlit
N/A
Visualization observer readout
Local Sidereal Time
13:13:51
Azimuth
Unknown
Elevation
Unknown
Doppler factor
Unknown
Orbital elements
Apogee altitude
42,127.092 km
Perigee altitude
822.015 km
Semi-major axis
27,852.69 km
Eccentricity
0.74149
Inclination
26.1883°
RAAN
65.1708°
Arg. of periapsis
279.6166°
True anomaly
79.7727°
Mean anomaly
10.907°
Eccentric anomaly
35.69589°
Mean motion
0.46692 °/min
Orbital period
771.01 mins
BSTAR
0.0072926
Loading maneuver chart data...
Computing Atmospheric mass density...
Loading historical data...
Loading historical data...
Loading historical data...
Loading historical data...
Loading historical data...
Loading historical data...
Loading historical data...

Documentation

Showing up to 5 results
|